[keps] orb07284.2l.amsat

Ray Hoad r.hoad at att.net
Thu Oct 11 18:38:51 PDT 2007


SB KEPS @ AMSAT  $ORB07284.N
2Line Orbital Elements 07284.AMSAT

HR AMSAT ORBITAL ELEMENTS FOR AMATEUR SATELLITES IN NASA FORMAT
FROM WA5QGD FORT WORTH,TX October 11, 2007
Send Subscribe/unsubscribe to KEPS at 
http://www.amsat.org/mailman/listinfo/keps
BID: ORB07284.N

DECODE 2-LINE ELSETS WITH THE FOLLOWING KEY:
1 AAAAAU 00  0  0 BBBBB.BBBBBBBB  .CCCCCCCC  00000-0  00000-0 0  DDDZ
2 AAAAA EEE.EEEE FFF.FFFF GGGGGGG HHH.HHHH III.IIII JJ.JJJJJJJJKKKKKZ
KEY: A-CATALOGNUM B-EPOCHTIME C-DECAY D-ELSETNUM E-INCLINATION F-RAAN
G-ECCENTRICITY H-ARGPERIGEE I-MNANOM J-MNMOTION K-ORBITNUM Z-CHECKSUM

TO ALL RADIO AMATEURS BT

AO-07
1 07530U 74089B   07283.62150500 -.00000028  00000-0  10000-3 0 09997
2 07530 101.5039 318.1869 0012152 031.5104 328.6689 12.53572611505585
AO-10
1 14129U 83058B   07283.16761486  .00000089  00000-0  10000-3 0 04345
2 14129 026.0816 252.0717 6058074 063.2296 345.5243 02.05867494182938
UO-11
1 14781U 84021B   07283.63157665 -.00000143  00000-0 -11737-4 0 04948
2 14781 098.1853 308.5253 0009735 154.4900 205.6812 14.79582782266809
RS-15
1 23439U 94085A   07283.81425496 -.00000039  00000-0  10000-3 0 01074
2 23439 064.8174 179.9298 0155773 169.9771 190.4312 11.27552637526738
FO-29
1 24278U 96046B   07284.82801258 -.00000102  00000-0 -69625-4 0  6098
2 24278 098.5644 228.8812 0351300 141.0438 221.6584 13.52932232550678
SO-33
1 25509U 98061B   07282.41240724  .00000306  00000-0  49450-4 0 00387
2 25509 031.4334 299.9228 0355257 345.9528 013.1429 14.28179789467592
AO-40
1 26609U 00072B   07282.20024460 -.00000014  00000-0  10000-3 0 09517
2 26609 006.7044 116.7849 7946103 011.6796 359.5312 01.25584814031877
VO-52
1 28650U 05017B   07283.75027712 -.00000017  00000-0  46065-5 0 07516
2 28650 097.8215 351.8171 0026293 235.8966 123.9768 14.81364686131527
PO-63
1 29712U 07001D   07284.75122699  .00000327  00000-0  50276-4 0  8097
2 29712 097.9105 342.2315 0015485 109.9262 250.3613 14.79849946 40573
AO-16
1 20439U 90005D   07284.51757399  .00000016  00000-0  21355-4 0  1527
2 20439 098.2070 272.7222 0010262 196.4245 163.6603 14.31772242925196
LO-19
1 20442U 90005G   07284.53656762 -.00000040  00000-0  23482-6 0   774
2 20442 098.1864 281.9080 0011480 194.7501 165.3354 14.32011930925343
AO-27
1 22825U 93061C   07283.92243738  .00000081  00000-0  48077-4 0 08006
2 22825 098.3451 248.8416 0007552 282.1646 077.8688 14.29219867732029
IO-26
1 22826U 93061D   07284.50978818  .00000003  00000-0  17342-4 0  4984
2 22826 098.3398 250.4272 0008099 278.5053 081.5212 14.29466381732195
PO-28
1 22829U 93061G   07283.91908619  .00000052  00000-0  36096-4 0 07763
2 22829 098.3278 251.0107 0008795 248.7428 111.2809 14.30168541732357
GO-32
1 25397U 98043D   07283.67579321 -.00000056  00000-0 -65889-5 0  4225
2 25397 098.4023 325.7621 0000428 214.4413 145.6759 14.23131230480585
MO-46
1 26548U 00057D   07283.75383675  .00000002  00000-0  17821-4 0 09187
2 26548 064.5574 185.1323 0001201 189.2297 170.8784 14.83180874380676
NO-44
1 26931U 01043C   07284.79123650  .00000215  00000-0  11627-3 0  7056
2 26931 067.0534 207.1173 0006188 251.2230 108.8203 14.29499302314763
SO-50
1 27607U 02058C   07284.49073031 -.00000107  00000-0  53896-5 0  4287
2 27607 064.5562 091.9029 0068212 330.9642 028.7655 14.71291464258230
CO-55
1 27844U 03031E   07283.47878996  .00000060  00000-0  48467-4 0 01418
2 27844 098.7209 290.2153 0010495 115.8618 244.3649 14.20535753221847
CO-57
1 27848U 03031J   07283.51418129  .00000019  00000-0  29348-4 0 00998
2 27848 098.7204 289.4068 0010193 118.7518 241.4685 14.20351329221828
AO-51
1 28375U 04025K   07284.63119606  .00000010  00000-0  15633-4 0  9318
2 28375 098.1016 317.8871 0083167 189.1984 170.7689 14.40582262172475
CO-56
1 28941U 06005C   07283.70675849  .00016505  25565-5  16204-3 0 05897
2 28941 098.1168 357.9585 0210489 222.3335 136.1527 15.43911328091232
HO-59
1 29484U 06041F   07284.48999934  .00042000  30931-5  24564-3 0  7577
2 29484 098.2683 352.6194 0177777 205.9231 153.3068 15.59618737 59151
NO-61
1 29664U 06055F   07284.77547826  .00063834  13177-4  11579-3 0  5494
2 29664 051.6279 194.0693 0010620 093.8813 266.3393 16.01587721 46776
CP4
1 31122U 07012F   07283.65029723  .00000550  00000-0  13192-3 0 01578
2 31122 098.0764 353.1347 0086084 027.4872 333.0802 14.55039670025643
CP3
1 31128U 07012M   07283.69011803 -.00000047  00000-0  00000-0 0 01537
2 31128 098.0714 352.2938 0103353 029.6728 331.0287 14.51870934025583
LIBERT
1 31129U 07012N   07284.71315535  .00000338  00000-0  89029-4 0  4291
2 31129 098.0722 353.2926 0103087 026.4782 334.1621 14.51964605 25710
NOAA-10
1 16969U 86073A   07283.61848642 -.00000061  00000-0 -67351-5 0 08450
2 16969 098.7434 300.8565 0012060 188.1121 171.9848 14.27335935095695
NOAA-11
1 19531U 88089A   07283.82694202 -.00000256  00000-0 -11010-3 0 08771
2 19531 098.8103 011.5379 0012426 062.8012 297.4432 14.14852039982502
NOAA-12
1 21263U 91032A   07283.90549584  .00000001  00000-0  19220-4 0 03828
2 21263 098.7602 280.9950 0013202 129.9285 230.3066 14.25496822852733
MET-3/5
1 21655U 91056A   07284.78560202  .00000051  00000-0  10000-3 0  3333
2 21655 082.5517 280.5637 0011941 278.8438 081.1333 13.17013066776755
MET-2/21
1 22782U 93055A   07283.56677928  .00000062  00000-0  42873-4 0 09573
2 22782 082.5474 310.3907 0020827 273.1126 086.7646 13.83619626712470
OKEAN-4
1 23317U 94066A   07284.74256152  .00000079  00000-0  68409-5 0  3941
2 23317 082.5428 187.7989 0020736 226.7100 133.2376 14.82539230701327
NOAA-14
1 23455U 94089A   07283.79575843  .00000083  00000-0  67587-4 0 08545
2 23455 098.9785 350.5315 0010139 130.8000 229.4029 14.13727761658977
SICH-1
1 23657U 95046A   07284.72830266  .00000196  00000-0  21873-4 0  1940
2 23657 082.5296 328.7691 0022859 216.9988 142.9643 14.81517707653286
NOAA-15
1 25338U 98030A   07283.91436882 -.00000059  00000-0 -68420-5 0 01973
2 25338 098.5399 277.3844 0011435 055.1382 305.0867 14.24667324489165
RESURS
1 25394U 98043A   07284.76601226 -.00000019  00000-0  98674-5 0  7581
2 25394 098.4262 334.6036 0000882 170.4399 189.6797 14.24146635480940
FENGYUN1
1 25730U 99025A   07283.93193076  .00000563  00000-0  35792-3 0 02457
2 25730 098.7001 263.4709 0018488 153.1758 207.0369 14.07622462433757
OKEAN-0
1 25860U 99039A   07283.54041954  .00000064  00000-0  17025-4 0 01837
2 25860 097.7376 280.4376 0001724 043.3806 316.7530 14.73477618442485
NOAA-16
1 26536U 00055A   07283.93961546  .00000067  00000-0  61554-4 0 06383
2 26536 099.1317 262.9731 0010143 204.4874 155.5840 14.12453747363448
NOAA-17
1 27453U 02032A   07283.83097770 -.00000025  00000-0  79052-5 0 06374
2 27453 098.5701 350.2969 0012753 116.6052 243.6415 14.23914484275173
NOAA-18
1 28654U 05018A   07283.83145687  .00000170  00000-0  11878-3 0 01595
2 28654 098.8373 223.2140 0013687 304.1562 055.8337 14.11100742123160
HUBBLE
1 20580U 90037B   07283.95928547  .00000360  00000-0  15042-4 0 00001
2 20580 028.4675 155.1549 0003640 239.7889 120.2338 15.00288420757365
UARS
1 21701U 91063B   07283.95316724  .00005567  00000-0  91570-4 0 01987
2 21701 056.9739 171.2098 0094957 058.7477 302.2839 15.49209905883686
PO-34
1 25520U 98064B   07283.76273186  .00000504  00000-0  15094-4 0  8419
2 25520 028.4587 055.1836 0005315 079.9847 280.1349 15.17061071495099
ISS
1 25544U 98067A   07284.85708688  .00009156  00000-0  62918-4 0  1433
2 25544 051.6351 222.1283 0003247 086.7256 011.0121 15.75545311509189
OO-38
1 26063U 00004C   07283.63738247 -.00000022  00000-0  12829-4 0   319
2 26063 100.2274 307.5899 0036668 194.5592 165.4527 14.35816484403618
UWE-1
1 28892U 05043C   07283.72840278  .00000070  00000-0  24463-4 0 08718
2 28892 098.1161 177.9885 0018472 110.4084 249.9121 14.59547379104065
CO-58
1 28895U 05043F   07283.70351745  .00000163  00000-0  43884-4 0 08479
2 28895 098.1163 178.2194 0018796 110.5385 249.7872 14.59591100103949
NCUBE2
1 28897U 05043H   07284.24519742  .00000120  00000-0  34811-4 0  3731
2 28897 098.1174 178.6984 0017982 109.7172 250.5969 14.59755979 96308
FCAL
1 29667U 06055J   07284.77294504  .00022381  11382-4  72934-4 0  3960
2 29667 051.6318 201.0363 0013515 086.0624 274.1939 15.92619280 46550
FALCON
1 30776U 07006E   07283.92373891  .00000284  00000-0  23886-4 0 01603
2 30776 035.4336 231.0214 0001658 358.6434 001.4285 15.02778978032475
MAST
1 31126U 07012K   07283.71447339  .00000343  00000-0  88342-4 0 01565
2 31126 098.0732 352.7320 0095395 028.5270 332.1094 14.53368931025632
CAPE1
1 31130U 07012P   07283.61894378  .00000202  00000-0  57716-4 0 01383
2 31130 098.0732 352.2284 0103320 029.9311 330.7738 14.51890759025365
/EX






More information about the Keps mailing list